Regional Weather Roundup
Issued by NWS

Home | Current Version | Previous Version | Text Only | Print | Product List | Glossary Off
Versions: 1 2 3 4 5 6 7 8 9 10 11 12 13 14 15 16 17 18 19 20 21 22 23 24 25 26 27 28 29 30 31 32 33 34 35 36 37 38 39 40 41 42 43 44 45 46 47 48 49 50

000
ASUS43 KLMK 262210
RWRKY
KENTUCKY REGIONAL WEATHER ROUNDUP
NATIONAL WEATHER SERVICE LOUISVILLE KY
600 PM EDT SAT MAY 26 2018

NOTE "FAIR" INDICATES FEW OR NO CLOUDS BELOW 12,000 FEET
WITH NO SIGNIFICANT WEATHER AND/OR OBSTRUCTIONS TO VISIBILITY.

KYZ001>023-026-027-061>063-070>075-262300-
WESTERN AND SOUTH CENTRAL KENTUCKY

CITY           SKY/WX    TMP DP  RH WIND       PRES   REMARKS
PADUCAH        FAIR      87  68  52 W5        29.80F HX  90
HENDERSON      FAIR      87  67  51 SW10      29.79F HX  90
OWENSBORO      PTSUNNY   86  68  54 W10       29.80F
HOPKINSVILLE   FAIR      82  72  70 SE9       29.83F
BOWLING GREEN  FAIR      79  70  74 S9        29.84F
GLASGOW        FAIR      78  69  72 SW5       29.85F
$$

KYZ024-025-028>034-038-045-046-053-262300-
NORTH CENTRAL KENTUCKY

CITY           SKY/WX    TMP DP  RH WIND       PRES   REMARKS
LOUISVILLE/SDF PTSUNNY   86  68  54 SW12      29.80S
LOUISVILLE/LOU FAIR      84  69  60 SW10G17   29.81S
FORT KNOX      FAIR      83  68  59 SW8       29.83S
$$

KYZ035>037-039>044-047>052-055>060-089>105-262300-
NORTHEAST KENTUCKY

CITY           SKY/WX    TMP DP  RH WIND       PRES   REMARKS
LEXINGTON      PTSUNNY   82  65  56 SW8       29.84S
COVINGTON      FAIR      80  70  71 SW5       29.81S
FRANKFORT      FAIR      83  66  56 S8        29.82F
$$

KYZ054-064>069-076>088-106>120-262300-
SOUTHEAST KENTUCKY

CITY           SKY/WX    TMP DP  RH WIND       PRES   REMARKS
JACKSON        FAIR      76  70  82 VRB5      29.88F
LONDON         FAIR      75  68  78 S8        29.89S
SOMERSET       FAIR      77  64  65 MISG      29.88S
MIDDLESBORO    CLOUDY    71  70  96 CALM      29.93R
MONTICELLO     MOCLDY    78  69  73 VRB7      29.88S
$$




USA.gov is the U.S. government's official web portal to all federal, state and local government web resources and services.